Location: ?sanag?dem
(16.9522°N, 81.1036°E)
Time: 23:42:58
(UTC+00:00)

Envisat - Pass Details

Date: 14 August 2024
Orbit: 762 x 764 km, 98.3° (Epoch: 16 September)

Event Time Altitude Azimuth Distance (km) Brightness Sun altitude
Rises 21:07:17 0° 21° (NNE) 3,218 6.9 -42.3°
Reaches altitude 10° 21:09:41 10° 28° (NNE) 2,291 6.0 -41.8°
Enters shadow 21:10:23 14° 31° (NNE) 2,030 5.7 -41.7°
